Weather observations for the past three days for
Hemet-Ryan Airport
Imperial (Metric)
Date Time (pdt) Wind (mph) Vis. (mi.) Weather Sky Cond. Temperature (ºF) Relative Humidity Wind Chill (°F) Heat Index (°F) Pressure Precipitation (in)
Air Dwpt 6 hour altimeter (in) sea level (mb) 1 hr 3 hr 6 hr
Max. Min.
20 18:35 SW 15 10.00 Fair CLR 96.8 41 14% 92 29.9 0.0
20 18:15 SW 16 10.00 Fair CLR 98.6 41 14% 94 29.89 0.0
20 17:55 SW 16 10.00 Fair CLR 98.6 42.8 15% 94 29.89 0.0
20 17:35 SW 15 G 23 10.00 Fair CLR 98.6 46.4 17% 95 29.89 0.0
20 17:15 SW 17 G 23 10.00 Fair CLR 100.4 48.2 17% 97 29.89 0.0
20 16:55 SW 17 G 23 10.00 Fair CLR 102.2 48.2 16% 99 29.89 0.0
20 16:35 S 14 10.00 Fair CLR 102.2 50 17% 99 29.9 0.0
20 16:15 SW 16 10.00 Fair CLR 104 48.2 15% 101 29.9 0.0
20 15:55 SW 17 G 23 10.00 Fair CLR 104 50 16% 101 29.91 0.0
20 15:35 S 13 10.00 Fair CLR 104 50 16% 101 29.91 0.0
20 15:15 S 18 G 24 10.00 Fair CLR 105.8 48.2 14% 102 29.91 0.0
20 14:55 SW 14 10.00 Fair CLR 105.8 46.4 13% 102 29.92 0.0
20 14:35 SW 13 G 18 10.00 Fair CLR 105.8 46.4 13% 102 29.92 0.0
20 14:15 SW 13 10.00 Fair CLR 105.8 46.4 13% 102 29.93 0.0
20 13:55 S 9 10.00 Fair CLR 107.6 39.2 10% 102 29.93 0.0
20 13:35 SW 9 10.00 Fair CLR 105.8 35.6 9% 100 29.94 0.0
20 13:15 SW 13 10.00 Fair CLR 105.8 33.8 8% 100 29.95 0.0
20 12:55 SW 8 10.00 Fair CLR 104 35.6 9% 98 29.96 0.0
20 12:35 S 8 10.00 Fair CLR 104 37.4 10% 99 29.96 0.0
20 12:15 SW 8 10.00 Fair CLR 102.2 37.4 11% 97 29.96 0.0
20 11:55 SW 9 10.00 Fair CLR 102.2 39.2 11% 97 29.97 0.0
20 11:35 S 5 10.00 Fair CLR 98.6 41 14% 94 29.97 0.0
20 11:15 Calm 10.00 Fair CLR 98.6 39.2 13% 94 29.98 0.0
20 10:55 SW 5 10.00 Fair CLR 98.6 39.2 13% 94 29.98 0.0
20 10:35 Calm 10.00 Fair CLR 96.8 37.4 13% 92 29.98 0.0
20 10:15 Calm 10.00 Fair CLR 95 39.2 14% 91 29.99 0.0
20 09:55 NE 3 10.00 Fair CLR 95 39.2 14% 91 29.99 0.0
20 09:35 Calm 10.00 Fair CLR 91.4 39.2 16% 87 29.99 0.0
20 09:15 Calm 10.00 Fair CLR 91.4 39.2 16% 87 29.99 0.0
20 08:55 Calm 10.00 Fair CLR 87.8 39.2 18% 84 30 0.0
20 08:35 Calm 10.00 Fair CLR 86 39.2 19% 83 29.99 0.0
20 08:15 Calm 10.00 Fair CLR 82.4 39.2 21% 80 30 0.0
20 07:55 Calm 10.00 Fair CLR 80.6 41 24% 79 29.99 0.0
20 07:35 Calm 10.00 Fair CLR 77 42.8 30% 78 29.99 0.0
20 07:15 Calm 10.00 Fair CLR 75.2 42.8 31% 77 29.99 0.0
20 06:55 Calm 10.00 Fair CLR 71.6 42.8 36% 29.99 0.0
20 06:35 Calm 10.00 Fair CLR 68 44.6 43% 29.98 0.0
20 06:15 Calm 10.00 Fair CLR 68 42.8 40% 29.98 0.0
20 05:55 NE 3 10.00 Fair CLR 68 42.8 40% 29.97 0.0
20 05:35 NE 3 10.00 Fair CLR 68 44.6 43% 29.97 0.0
20 05:15 Calm 10.00 Fair CLR 69.8 44.6 40% 29.97 0.0
20 04:55 Calm 10.00 Fair CLR 66.2 44.6 46% 29.96 0.0
20 04:35 Calm 10.00 Fair CLR 69.8 44.6 40% 29.96 0.0
20 04:15 Calm 10.00 Fair CLR 69.8 44.6 40% 29.96 0.0
20 03:55 Calm 10.00 Fair CLR 69.8 44.6 40% 29.96 0.0
20 03:35 Calm 10.00 Fair CLR 71.6 44.6 38% 29.96 0.0
20 03:15 Calm 10.00 Fair CLR 69.8 44.6 40% 29.97 0.0
20 02:55 Calm 10.00 Fair CLR 73.4 41 31% 29.97 0.0
20 02:35 Calm 10.00 Fair CLR 73.4 42.8 33% 29.97 0.0
20 02:15 Calm 10.00 Fair CLR 73.4 44.6 36% 29.97 0.0
20 01:55 Calm 10.00 Fair CLR 73.4 42.8 33% 29.98 0.0
20 01:35 Calm 10.00 Fair CLR 75.2 41 29% 77 29.98 0.0
20 01:15 E 3 10.00 Fair CLR 75.2 39.2 27% 77 29.98 0.0
20 00:55 NE 3 10.00 Fair CLR 75.2 41 29% 77 29.98 0.0
20 00:35 NE 5 10.00 Fair CLR 75.2 41 29% 77 29.99 0.0
20 00:15 NE 6 10.00 Fair CLR 77 44.6 32% 78 29.99 0.0
19 23:55 NE 3 10.00 Fair CLR 78.8 42.8 28% 78 30 0.0
19 23:35 Calm 10.00 Fair CLR 77 44.6 32% 78 30 0.0
19 23:15 Calm 10.00 Fair CLR 78.8 44.6 30% 79 30 0.0
19 22:55 Calm 10.00 Fair CLR 78.8 42.8 28% 78 30 0.0
19 22:35 Calm 10.00 Fair CLR 80.6 41 24% 79 30 0.0
19 22:15 Calm 10.00 Fair CLR 82.4 41 23% 80 30 0.0
19 21:55 Calm 10.00 Fair CLR 82.4 41 23% 80 30 0.0
19 21:35 Calm 10.00 Fair CLR 84.2 41 22% 82 29.99 0.0
19 21:15 Calm 10.00 Fair CLR 82.4 39.2 21% 80 29.99 0.0
19 20:55 Calm 10.00 Fair CLR 86 39.2 19% 83 29.99 0.0
19 20:35 Calm 10.00 Fair CLR 87.8 39.2 18% 84 29.98 0.0
19 20:15 W 5 10.00 Fair CLR 89.6 37.4 16% 86 29.97 0.0
19 19:55 N 3 10.00 Fair CLR 89.6 37.4 16% 86 29.97 0.0
19 19:35 NW 7 10.00 Fair CLR 93.2 37.4 14% 89 29.96 0.0
19 19:15 NW 12 10.00 Fair CLR 95 37.4 13% 90 29.95 0.0
19 18:55 NW 12 10.00 Fair CLR 96.8 35.6 12% 92 29.95 0.0
19 18:35 NW 14 10.00 Fair CLR 96.8 37.4 13% 92 29.94 0.0
19 18:15 NW 16 G 20 10.00 Fair CLR 98.6 35.6 11% 94 29.94 0.0
19 17:55 NW 15 10.00 Fair CLR 100.4 37.4 11% 95 29.94 0.0
19 17:35 NW 16 10.00 Fair CLR 100.4 35.6 10% 95 29.94 0.0
19 17:15 NW 10 10.00 Fair CLR 100.4 46.4 16% 97 29.94 0.0
19 16:55 SW 7 10.00 Fair CLR 100.4 50 18% 97 29.94 0.0
19 16:35 SW 12 G 24 10.00 Fair CLR 100.4 57.2 24% 100 29.94 0.0
19 16:15 S 15 10.00 Fair CLR 100.4 57.2 24% 100 29.94 0.0
19 15:55 S 14 10.00 Fair CLR 100.4 59 25% 100 29.94 0.0
19 15:35 SW 13 10.00 Fair CLR 100.4 57.2 24% 100 29.95 0.0
19 15:15 S 16 10.00 Fair CLR 102.2 57.2 23% 102 29.95 0.0
19 14:55 S 14 10.00 Fair CLR 102.2 55.4 21% 101 29.96 0.0
19 14:35 S 13 G 21 10.00 Fair CLR 102.2 55.4 21% 101 29.96 0.0
19 14:15 SW 15 10.00 Fair CLR 102.2 55.4 21% 101 29.97 0.0
19 13:55 SW 15 G 20 10.00 Fair CLR 102.2 55.4 21% 101 29.97 0.0
19 13:35 S 10 10.00 Fair CLR 102.2 55.4 21% 101 29.98 0.0
19 13:15 SW 13 10.00 Fair CLR 102.2 53.6 20% 100 29.98 0.0
19 12:55 SW 8 10.00 Fair CLR 102.2 35.6 10% 97 29.99 0.0
19 12:35 SW 10 G 16 10.00 Fair CLR 102.2 39.2 11% 97 29.99 0.0
19 12:15 SW 9 10.00 Fair CLR 102.2 33.8 9% 97 30 0.0
19 11:55 W 8 10.00 Fair CLR 100.4 35.6 10% 95 30 0.0
19 11:35 SW 6 10.00 Fair CLR 98.6 41 14% 94 30.01 0.0
19 11:15 SW 7 10.00 Fair CLR 98.6 37.4 12% 94 30.01 0.0
19 10:55 SW 5 10.00 Fair CLR 95 46.4 19% 91 30.02 0.0
19 10:35 W 5 10.00 Fair CLR 93.2 53.6 26% 91 30.02 0.0
19 10:15 SW 6 10.00 Fair CLR 91.4 55.4 30% 90 30.02 0.0
19 09:55 Calm 10.00 Fair CLR 89.6 55.4 31% 88 30.03 0.0
19 09:35 Calm 10.00 Fair CLR 87.8 57.2 35% 87 30.03 0.0
19 09:15 Calm 10.00 Fair CLR 84.2 59 43% 84 30.02 0.0
19 08:15 Calm 10.00 Fair CLR 77 62.6 61% 79 30.03 0.0
19 07:55 Calm 10.00 Fair CLR 75.2 60.8 61% 77 30.03 0.0
19 07:35 Calm 10.00 Fair CLR 73.4 60.8 65% 30.03 0.0
19 07:15 Calm 10.00 Fair CLR 71.6 60.8 69% 30.03 0.0
19 06:55 Calm 10.00 Fair CLR 69.8 60.8 73% 30.03 0.0
19 06:35 Calm 10.00 Fair CLR 66.2 60.8 83% 30.02 0.0
19 06:15 Calm 10.00 Fair CLR 66.2 60.8 83% 30.02 0.0
19 05:55 Calm 10.00 Fair CLR 68 60.8 78% 30.01 0.0
19 05:35 S 3 10.00 Fair CLR 66.2 60.8 83% 30 0.0
19 05:15 SW 3 10.00 Fair CLR 64.4 59 83% 30 0.0
19 04:55 W 3 10.00 Fair CLR 64.4 59 83% 30 0.0
19 04:35 SW 3 10.00 Fair CLR 68 60.8 78% 30 0.0
19 04:15 Calm 10.00 Fair CLR 68 60.8 78% 30 0.0
19 03:55 Calm 10.00 Fair CLR 68 60.8 78% 30 0.0
19 03:35 Calm 10.00 Fair CLR 66.2 60.8 83% 29.99 0.0
19 03:15 Calm 10.00 Fair CLR 68 60.8 78% 30 0.0
19 02:55 Calm 10.00 Fair CLR 69.8 60.8 73% 29.99 0.0
19 02:35 Calm 10.00 Fair CLR 66.2 60.8 83% 30 0.0
19 02:15 Calm 10.00 Fair CLR 68 60.8 78% 30 0.0
19 01:55 Calm 10.00 Fair CLR 68 60.8 78% 30 0.0
19 01:35 SW 3 10.00 Fair CLR 68 60.8 78% 30 0.0
19 01:15 SW 5 10.00 Fair CLR 69.8 60.8 73% 30.01 0.0
19 00:55 S 3 10.00 Fair CLR 69.8 60.8 73% 30.02 0.0
19 00:35 SW 6 10.00 Fair CLR 69.8 60.8 73% 30.02 0.0
19 00:15 SW 7 10.00 Fair CLR 69.8 60.8 73% 30.02 0.0
18 23:55 SW 9 10.00 Fair CLR 69.8 60.8 73% 30.03 0.0
18 23:35 SW 8 10.00 Fair CLR 69.8 60.8 73% 30.03 0.0
18 23:15 SW 8 10.00 Fair CLR 71.6 60.8 69% 30.03 0.0
18 22:55 SW 6 10.00 Fair CLR 71.6 60.8 69% 30.02 0.0
18 22:35 SW 6 10.00 Fair CLR 71.6 60.8 69% 30.02 0.0
18 22:15 SW 7 10.00 Fair CLR 73.4 60.8 65% 30.02 0.0
18 21:55 SW 8 10.00 Fair CLR 73.4 60.8 65% 30.01 0.0
18 21:35 SW 8 10.00 Fair CLR 75.2 60.8 61% 77 30.01 0.0
18 21:15 W 6 10.00 Fair CLR 75.2 60.8 61% 77 30 0.0
18 20:55 SW 12 10.00 Fair CLR 77 60.8 57% 79 29.99 0.0
18 20:35 SW 10 10.00 Fair CLR 78.8 60.8 54% 80 29.99 0.0
18 20:15 SW 9 10.00 Fair CLR 78.8 60.8 54% 80 29.98 0.0
18 19:55 SW 8 10.00 Fair CLR 82.4 59 45% 82 29.98 0.0
18 19:35 SW 12 10.00 Fair CLR 84.2 60.8 45% 84 29.98 0.0
18 19:15 SW 8 10.00 Fair CLR 86 60.8 43% 86 29.98 0.0
18 18:55 SW 8 10.00 Fair CLR 87.8 60.8 40% 88 29.97 0.0
18 18:35 SW 12 10.00 Fair CLR 89.6 60.8 38% 90 29.96 0.0
18 18:15 SW 13 10.00 Fair CLR 91.4 60.8 36% 91 29.96 0.0
18 17:55 SW 13 10.00 Fair CLR 91.4 60.8 36% 91 29.95 0.0
18 17:35 SW 16 10.00 Fair CLR 93.2 60.8 34% 93 29.95 0.0
18 17:15 SW 15 10.00 Fair CLR 95 60.8 32% 95 29.94 0.0
18 16:35 SW 17 G 22 10.00 Fair CLR 96.8 60.8 30% 97 29.94 0.0
18 16:15 S 17 G 22 10.00 Fair CLR 96.8 60.8 30% 97 29.94 0.0
18 15:55 SW 18 10.00 Fair CLR 96.8 60.8 30% 97 29.95 0.0
18 15:35 SW 16 G 21 10.00 Fair CLR 100.4 60.8 27% 101 29.95 0.0
18 15:15 SW 17 10.00 Fair CLR 98.6 60.8 29% 99 29.95 0.0
18 14:55 SW 18 G 22 10.00 Fair CLR 100.4 59 25% 100 29.95 0.0
18 14:35 SW 14 G 21 10.00 Fair CLR 100.4 59 25% 100 29.95 0.0
18 14:15 SW 16 G 22 10.00 Fair CLR 100.4 57.2 24% 100 29.96 0.0
18 13:55 SW 14 10.00 Fair CLR 102.2 57.2 23% 102 29.96 0.0
18 13:35 SW 13 10.00 Fair CLR 102.2 55.4 21% 101 29.97 0.0
18 13:15 SW 13 10.00 Fair CLR 98.6 55.4 24% 97 29.97 0.0
18 12:55 SW 9 G 17 10.00 Fair CLR 98.6 55.4 24% 97 29.98 0.0
18 12:35 S 10 10.00 Fair CLR 96.8 55.4 25% 95 29.99 0.0
18 12:15 S 8 10.00 Fair CLR 96.8 57.2 27% 96 29.99 0.0
18 11:55 W 7 10.00 Fair CLR 95 57.2 28% 94 29.99 0.0
18 11:35 W 6 10.00 Fair CLR 93.2 57.2 30% 92 29.99 0.0
18 11:15 SW 6 10.00 Fair CLR 91.4 55.4 30% 90 30 0.0
18 10:55 Calm 10.00 Fair CLR 89.6 53.6 29% 87 30 0.0
18 10:35 SW 6 10.00 Fair CLR 87.8 59 38% 87 30 0.0
18 10:15 S 6 10.00 Fair CLR 86 60.8 43% 86 30 0.0
18 09:55 S 5 10.00 Fair CLR 84.2 60.8 45% 84 30.01 0.0
18 09:35 SE 5 10.00 Fair CLR 80.6 60.8 51% 81 30 0.0
18 09:15 S 5 10.00 Fair CLR 80.6 60.8 51% 81 30 0.0
18 08:55 Calm 10.00 Fair CLR 78.8 60.8 54% 80 30 0.0
18 08:35 SW 5 10.00 Fair CLR 77 62.6 61% 79 30 0.0
18 08:15 Calm 10.00 Fair CLR 75.2 62.6 65% 77 30 0.0
18 07:55 Calm 10.00 Fair CLR 73.4 62.6 69% 29.99 0.0
18 07:35 SW 3 10.00 Fair CLR 71.6 62.6 73% 29.98 0.0
18 07:15 Calm 10.00 Fair CLR 69.8 60.8 73% 29.98 0.0
18 06:55 Calm 10.00 Fair CLR 68 60.8 78% 29.98 0.0
18 06:35 Calm 10.00 Fair CLR 64.4 60.8 88% 29.98 0.0
18 06:15 Calm 10.00 Fair CLR 64.4 59 83% 29.97 0.0
18 05:55 Calm 10.00 Fair CLR 66.2 60.8 83% 29.97 0.0
18 05:35 Calm 10.00 Fair CLR 66.2 60.8 83% 29.97 0.0
18 05:15 SW 3 10.00 Fair CLR 66.2 60.8 83% 29.97 0.0
18 04:55 SW 3 10.00 Fair CLR 64.4 60.8 88% 29.97 0.0
18 04:35 SW 3 10.00 Fair CLR 66.2 60.8 83% 29.97 0.0
18 04:15 SW 3 10.00 Fair CLR 64.4 60.8 88% 29.96 0.0
18 03:55 SW 6 10.00 Fair CLR 64.4 59 83% 29.96 0.0
18 03:35 SW 6 10.00 Fair CLR 64.4 60.8 88% 29.96 0.0
18 03:15 SW 5 10.00 Fair CLR 66.2 60.8 83% 29.97 0.0
18 02:55 SW 3 10.00 Fair CLR 66.2 60.8 83% 29.97 0.0
18 02:35 SW 6 10.00 Fair CLR 66.2 60.8 83% 29.97 0.0
18 02:15 SW 7 10.00 Fair CLR 66.2 60.8 83% 29.97 0.0
18 01:55 SW 7 10.00 Fair CLR 68 60.8 78% 29.97 0.0
18 01:35 SW 8 10.00 Fair CLR 68 60.8 78% 29.97 0.0
18 00:55 SW 7 10.00 Fair CLR 68 60.8 78% 29.98 0.0
18 00:35 SW 8 10.00 Fair CLR 69.8 60.8 73% 29.98 0.0
18 00:15 SW 7 10.00 Fair CLR 69.8 60.8 73% 29.98 0.0
17 23:55 SW 10 10.00 Fair CLR 69.8 60.8 73% 29.98 0.0
17 23:35 SW 13 10.00 Fair CLR 69.8 60.8 73% 29.98 0.0
17 23:15 SW 13 10.00 Fair CLR 71.6 60.8 69% 29.98 0.0
17 22:55 SW 10 10.00 Fair CLR 71.6 60.8 69% 29.98 0.0
17 22:35 SW 10 10.00 Fair CLR 73.4 60.8 65% 29.98 0.0
17 22:15 SW 10 10.00 Fair CLR 73.4 60.8 65% 29.98 0.0
17 21:55 SW 14 10.00 Fair CLR 75.2 60.8 61% 77 29.97 0.0
17 21:35 SW 12 10.00 Fair CLR 75.2 60.8 61% 77 29.97 0.0
17 21:15 SW 9 10.00 Fair CLR 77 60.8 57% 79 29.97 0.0
17 20:55 SW 12 10.00 Fair CLR 77 60.8 57% 79 29.96 0.0
17 20:35 SW 13 10.00 Fair CLR 78.8 60.8 54% 80 29.95 0.0
17 20:15 W 12 10.00 Fair CLR 78.8 60.8 54% 80 29.95 0.0
17 19:55 SW 12 10.00 Fair CLR 80.6 62.6 54% 82 29.94 0.0
17 19:35 SW 9 10.00 Fair CLR 82.4 62.6 51% 83 29.94 0.0
17 19:15 SW 12 10.00 Fair CLR 86 62.6 46% 87 29.93 0.0
17 18:55 SW 13 10.00 Fair CLR 87.8 62.6 43% 88 29.92 0.0
Date Time (pdt) Wind (mph) Vis. (mi.) Weather Sky Cond. Air Dwpt Max. Min. Relative Humidity Wind Chill (°F) Heat Index (°F) altimeter (in) sea level (mb) 1 hr 3 hr 6 hr
6 hour
Temperature (ºF) Pressure Precipitation (in)